Vorticity
5 4 4 4 6 6 5 5 4 5 6 6 4 5 8 16 15 11 10 9 7 9 13 16 17 19 22 21 17 12 10 8 8 9 11 13 12 12 11 10 11 10 12
4 5 7 7 6 5 5 5 5 5 5 8 12 18 16 10 10 10 8 9 13 16 22 18 13 14 12 9 8 8 8 8 10 12 12 12 13 15 13 11 10 9 11
8 6 5 5 7 8 7 6 7 10 14 16 13 10 10 10 9 7 9 15 17 21 15 13 11 10 8 7 6 7 7 8 9 10 10 12 8 14 18 15 10 12 17
9 9 8 8 6 6 10 12 13 13 13 11 10 9 10 9 7 9 15 15 17 15 13 11 9 8 7 7 7 7 8 7 7 9 9 9 9 9 15 16 17 26 23
7 9 9 10 11 12 11 12 9 8 9 12 13 11 10 7 9 15 15 15 14 12 11 9 7 7 7 7 7 8 7 7 7 8 7 7 10 10 11 13 16 21 18
14 15 14 13 12 9 7 9 10 9 8 9 9 9 8 9 13 17 15 13 12 12 9 8 7 7 8 8 8 8 7 7 8 7 7 7 7 8 11 13 11 24 16
10 10 10 10 11 10 10 11 12 12 12 10 9 10 8 10 12 15 15 15 12 10 8 6 7 8 8 8 8 8 7 8 7 7 7 7 7 8 10 9 13 25 17
8 11 13 15 14 11 8 7 8 9 11 10 10 10 9 10 12 13 14 13 10 8 7 6 6 7 8 7 8 8 8 8 7 7 8 7 8 7 9 10 12 19 19
2 1 10 11 8 3 4 4 5 6 5 10 10 10 9 9 11 12 11 10 8 6 5 5 6 6 7 7 8 8 8 7 6 7 7 7 8 8 8 9 11 11 3
-5 1 16 12 6 6 7 1 2 4 5 6 11 8 8 7 9 10 9 8 7 6 5 5 6 6 6 6 7 7 7 7 6 6 7 7 7 7 7 8 9 11 14
-8 9 11 5 6 6 6 6 6 6 3 8 12 11 9 8 8 8 7 7 6 5 5 6 6 6 6 5 6 7 8 7 7 7 7 6 7 7 8 8 8 8 8
18 24 24 20 26 30 8 -2 7 11 13 11 10 10 8 8 8 7 8 8 7 6 5 5 5 6 6 6 6 6 6 7 7 7 7 7 8 7 7 7 8 8 8
21 16 18 14 12 13 20 19 10 11 14 8 10 9 9 8 8 7 7 8 7 6 5 5 5 6 6 6 6 6 6 6 7 7 8 7 7 7 7 7 8 8 8
11 11 11 12 12 13 13 14 13 12 11 10 11 9 10 11 9 8 6 6 7 7 6 5 6 5 5 5 5 6 6 6 6 7 7 8 8 8 7 7 8 8 8
6 5 4 4 6 6 4 5 7 10 11 11 10 10 11 14 11 9 6 5 7 7 6 6 6 5 5 5 5 5 5 6 6 6 7 7 8 8 8 8 8 8 8
5 6 7 9 9 13 14 13 13 10 9 8 7 9 11 12 13 10 8 7 6 6 5 5 5 5 5 5 5 5 5 6 6 6 6 7 8 8 9 9 8 8 8
7 11 9 5 9 9 11 12 9 10 15 12 10 8 10 12 11 11 10 9 7 6 5 6 5 5 6 5 5 5 5 6 7 7 7 8 8 8 9 9 9 9 9
10 9 9 9 10 8 11 14 16 14 14 14 12 10 10 11 11 10 11 12 9 6 6 6 6 5 6 6 6 6 6 6 7 7 7 8 8 8 9 10 10 9 10
8 7 10 11 11 10 8 8 10 15 12 13 14 12 12 11 11 13 12 11 10 9 8 7 7 7 7 6 6 6 6 7 7 6 5 6 9 9 10 10 10 10 10
9 11 12 11 11 10 9 10 10 9 12 12 11 14 12 12 10 10 11 13 13 10 10 10 10 9 8 9 8 7 6 5 6 5 8 9 10 10 9 10 10 11 8
13 14 11 10 12 12 12 10 12 13 10 11 13 11 13 10 14 12 10 9 10 10 11 10 10 9 9 8 8 8 7 7 8 9 12 12 11 11 10 10 11 10 9
13 9 9 10 11 12 12 13 13 13 13 12 12 13 14 10 12 10 14 12 10 9 8 9 8 9 10 10 9 9 9 9 10 13 15 14 12 13 12 11 13 12 11
9 11 13 12 12 12 14 14 13 12 11 12 11 12 13 12 12 12 13 12 11 12 11 11 12 11 11 13 14 13 13 14 15 16 15 13 11 11 14 14 14 11 10
11 11 10 10 11 10 10 10 12 13 14 13 12 10 11 11 13 12 12 12 13 13 11 8 9 10 11 11 11 14 17 16 16 16 15 15 15 15 13 11 10 11 10
8 5 7 8 4 10 8 9 12 12 15 15 13 13 13 13 11 12 14 13 14 13 15 17 19 19 20 16 16 15 17 17 17 16 16 14 12 11 11 11 10 10 9
4 5 4 4 7 9 10 11 11 8 13 16 17 15 12 11 13 15 15 15 14 13 14 15 14 15 17 17 15 14 13 14 14 14 15 12 10 10 10 9 9 9 8
Height
3152 3152 3152 3153 3152 3151 3150 3148 3146 3144 3143 3141 3138 3136 3132 3129 3125 3122 3120 3117 3114 3110 3107 3105 3102 3100 3097 3096 3096 3095 3094 3090 3088 3087 3087 3084 3081 3080 3077 3074 3069 3066 3065
3149 3148 3148 3148 3147 3147 3145 3142 3140 3138 3136 3135 3132 3129 3126 3123 3120 3118 3114 3112 3108 3104 3101 3099 3098 3096 3095 3093 3093 3093 3091 3087 3085 3083 3081 3081 3080 3077 3072 3066 3061 3059 3055
3144 3144 3144 3144 3143 3142 3140 3138 3136 3133 3131 3128 3126 3123 3120 3118 3115 3111 3108 3106 3103 3100 3098 3096 3095 3094 3093 3091 3091 3090 3088 3086 3082 3079 3077 3072 3070 3073 3071 3063 3056 3051 3046
3140 3139 3139 3138 3137 3136 3135 3133 3130 3128 3126 3124 3121 3119 3116 3113 3110 3107 3103 3101 3099 3096 3094 3094 3093 3092 3091 3090 3088 3087 3086 3084 3081 3077 3074 3069 3065 3060 3063 3062 3053 3045 3039
3136 3135 3134 3134 3132 3131 3129 3127 3125 3123 3121 3119 3116 3114 3111 3109 3106 3102 3099 3096 3095 3093 3092 3092 3091 3091 3089 3088 3086 3085 3083 3081 3079 3077 3074 3069 3064 3060 3056 3050 3048 3042 3035
3131 3131 3130 3129 3128 3127 3124 3122 3120 3118 3116 3113 3111 3109 3108 3105 3102 3098 3096 3093 3092 3091 3090 3089 3089 3088 3087 3086 3084 3082 3080 3078 3076 3073 3071 3068 3065 3061 3056 3048 3041 3035 3034
3128 3127 3126 3125 3123 3122 3119 3118 3115 3113 3111 3109 3107 3105 3103 3101 3098 3095 3092 3091 3090 3090 3089 3088 3088 3087 3085 3083 3082 3080 3077 3076 3073 3071 3067 3064 3063 3059 3053 3047 3041 3036 3034
3124 3123 3122 3120 3119 3117 3115 3113 3111 3109 3107 3105 3103 3101 3099 3097 3094 3091 3090 3089 3089 3088 3087 3086 3086 3085 3083 3081 3079 3077 3075 3074 3072 3069 3066 3063 3060 3056 3051 3046 3041 3038 3035
3121 3120 3118 3116 3114 3112 3111 3110 3108 3106 3103 3101 3099 3097 3095 3093 3091 3090 3088 3087 3088 3087 3087 3085 3083 3082 3081 3078 3076 3074 3073 3071 3069 3067 3065 3062 3058 3054 3050 3045 3041 3038 3036
3117 3115 3113 3111 3110 3108 3107 3105 3103 3101 3099 3096 3094 3092 3090 3089 3088 3087 3087 3086 3085 3084 3084 3083 3082 3080 3078 3075 3073 3071 3070 3068 3066 3064 3062 3059 3056 3052 3048 3045 3041 3038 3035
3111 3110 3108 3106 3104 3103 3100 3099 3098 3096 3094 3091 3090 3088 3087 3086 3084 3083 3083 3083 3083 3081 3080 3080 3079 3077 3075 3072 3070 3069 3067 3065 3063 3061 3059 3056 3053 3050 3046 3043 3040 3037 3034
3107 3104 3101 3100 3098 3096 3095 3094 3092 3090 3089 3086 3084 3084 3083 3081 3080 3080 3079 3078 3077 3077 3076 3076 3075 3073 3071 3068 3066 3065 3063 3061 3060 3058 3056 3053 3051 3048 3044 3041 3038 3035 3033
3102 3099 3097 3095 3093 3091 3090 3088 3086 3084 3082 3081 3080 3079 3078 3077 3076 3075 3074 3074 3073 3072 3072 3071 3070 3068 3066 3064 3062 3061 3059 3057 3055 3054 3052 3049 3047 3044 3041 3039 3036 3033 3030
3098 3095 3093 3091 3089 3087 3085 3083 3081 3079 3078 3076 3075 3074 3072 3071 3070 3069 3068 3067 3067 3067 3066 3066 3064 3063 3061 3059 3057 3056 3054 3052 3051 3049 3047 3045 3042 3040 3037 3035 3033 3030 3027
3095 3093 3090 3088 3086 3084 3081 3079 3076 3074 3072 3071 3070 3068 3066 3065 3064 3063 3062 3061 3061 3061 3061 3060 3058 3057 3055 3053 3052 3050 3049 3047 3045 3043 3041 3039 3036 3034 3032 3030 3028 3026 3023
3091 3088 3086 3084 3081 3078 3075 3072 3071 3069 3066 3064 3062 3061 3059 3057 3057 3056 3055 3055 3055 3054 3053 3053 3052 3050 3048 3047 3046 3044 3042 3041 3040 3037 3035 3032 3030 3028 3026 3024 3021 3019 3018
3086 3084 3081 3079 3076 3072 3068 3066 3064 3061 3059 3057 3055 3053 3052 3050 3049 3049 3048 3048 3048 3046 3046 3046 3044 3043 3042 3039 3038 3037 3035 3034 3032 3031 3029 3026 3023 3022 3020 3018 3015 3013 3011
3082 3079 3076 3073 3070 3066 3063 3060 3057 3054 3052 3049 3047 3045 3044 3043 3042 3041 3041 3040 3039 3038 3038 3038 3036 3035 3034 3031 3030 3028 3027 3026 3025 3022 3020 3019 3016 3013 3012 3010 3008 3006 3004
3076 3072 3069 3065 3063 3059 3056 3054 3051 3047 3044 3042 3040 3038 3036 3035 3034 3033 3032 3031 3031 3030 3029 3029 3028 3026 3026 3023 3021 3018 3017 3017 3016 3013 3011 3009 3008 3004 3003 3002 3000 2998 2996
3069 3066 3063 3059 3055 3052 3049 3046 3044 3040 3038 3035 3033 3030 3028 3026 3024 3024 3024 3023 3022 3021 3020 3020 3019 3017 3017 3014 3011 3008 3007 3007 3006 3004 3002 2999 2997 2995 2993 2992 2991 2990 2987
3062 3060 3056 3052 3049 3046 3042 3039 3035 3033 3030 3027 3025 3022 3020 3018 3016 3015 3014 3012 3011 3010 3010 3009 3008 3007 3005 3004 3001 2998 2996 2995 2994 2993 2992 2988 2986 2985 2983 2982 2981 2980 2978
3057 3054 3051 3047 3043 3039 3036 3032 3029 3026 3023 3019 3017 3014 3012 3009 3007 3005 3004 3002 3001 3000 2999 2996 2996 2996 2994 2991 2990 2987 2984 2983 2982 2983 2981 2978 2975 2975 2973 2972 2972 2970 2969
3051 3049 3047 3043 3038 3034 3029 3027 3022 3019 3016 3013 3009 3006 3003 3000 2997 2996 2994 2993 2990 2988 2988 2986 2985 2985 2982 2979 2975 2974 2972 2971 2969 2971 2969 2967 2964 2964 2964 2962 2961 2960 2959
3046 3043 3040 3037 3034 3029 3024 3020 3016 3012 3008 3005 3001 2997 2995 2992 2989 2986 2983 2982 2980 2978 2977 2975 2973 2972 2971 2966 2962 2962 2960 2959 2957 2957 2957 2956 2955 2954 2954 2952 2951 2950 2949
3039 3036 3033 3030 3026 3023 3018 3014 3009 3006 3002 2998 2993 2989 2985 2983 2981 2977 2974 2971 2969 2966 2965 2963 2962 2960 2960 2956 2953 2952 2950 2949 2947 2947 2947 2946 2945 2944 2943 2942 2941 2939 2938
3032 3030 3026 3022 3019 3016 3012 3007 3003 2998 2994 2992 2987 2982 2978 2974 2971 2969 2967 2961 2960 2958 2956 2954 2952 2950 2949 2948 2945 2943 2942 2940 2938 2939 2939 2937 2936 2935 2933 2932 2931 2929 2928